SCP
0 0 0 0 0 0 0 0 0 0 0 0 0 0 0 0 0 0 0 0 0 0 0 0 0 0 0 0 0 0 0 0 0 0 0 0 0 0
0 0 0 0 0 0 0 0 0 0 0 0 0 0 0 0 0 0 0 0 0 0 0 0 0 0 0 0 0 0 0 0 0 0 0 0 0 0
0 0 0 0 0 0 0 0 0 0 0 0 0 0 0 0 0 0 0 0 0 0 0 0 0 0 0 0 0 0 0 0 0 0 0 0 0 0
0 0 0 0 0 0 0 0 0 0 0 0 0 0 0 0 0 0 0 0 0 0 0 0 0 0 0 0 0 0 0 0 0 0 0 0 0 0
0 0 0 0 0 0 0 0 0 0 0 0 0 0 0 0 0 0 0 0 0 0 0 0 0 0 0 0 0 0 0 0 0 0 0 0 0 0
0 0 0 0 0 0 0 0 0 0 0 0 0 0 0 0 0 0 0 0 0 0 0 0 0 0 0 0 0 0 0 0 0 0 0 0 0 0
0 0 0 0 0 0 0 0 0 0 0 0 0 0 0 0 0 0 0 0 0 0 0 0 0 0 0 0 0 0 0 0 0 0 0 0 0 0
0 0 0 0 0 0 0 0 0 0 0 0 0 0 0 0 0 0 0 0 0 0 0 0 0 0 0 0 0 0 0 0 0 0 0 0 0 0
0 0 0 0 0 0 0 0 0 0 0 0 0 0 0 0 0 0 0 0 0 0 0 0 0 0 0 0 0 0 0 0 0 0 0 0 0 0
0 0 0 0 0 0 0 0 0 0 0 0 0 0 0 0 0 0 0 0 0 0 0 0 0 0 0 0 0 0 0 0 0 0 0 0 0 0
0 0 0 0 0 0 0 0 0 0 0 0 0 0 0 0 0 0 0 0 0 0 0 0 0 0 0 0 0 0 0 0 0 0 0 0 0 0
0 0 0 0 0 0 0 0 0 0 0 0 0 0 0 0 0 0 0 0 0 0 0 0 0 0 0 0 0 0 0 0 0 0 0 0 0 0
0 0 0 0 0 0 0 0 0 0 0 0 0 0 0 0 0 0 0 0 0 0 0 0 0 0 0 0 0 0 0 0 0 0 0 0 0 0
0 0 0 0 0 0 0 0 0 0 0 0 0 0 0 0 0 0 0 0 0 0 0 0 0 0 0 0 0 0 0 0 0 0 0 0 0 0
0 0 0 0 0 0 0 0 0 0 0 0 0 0 0 0 0 0 0 0 0 0 0 0 0 0 0 0 0 0 0 0 0 0 0 0 0 0
0 0 0 0 0 0 0 0 0 0 0 0 0 0 0 0 0 0 0 0 0 0 0 0 0 0 0 0 0 0 0 0 0 0 0 0 0 0
0 0 0 0 0 0 0 0 0 0 0 0 0 0 0 0 0 0 0 0 0 0 0 0 0 0 0 0 0 0 0 0 0 0 0 0 0 0
0 0 0 0 0 0 0 0 0 0 0 0 0 0 0 0 0 0 0 0 0 0 0 0 0 0 0 0 0 0 0 0 0 0 0 0 0 0
0 0 0 0 0 0 0 0 0 0 0 0 0 0 0 0 0 0 0 0 0 0 0 0 0 0 0 0 0 0 0 0 0 0 0 0 0 0
0 0 0 0 0 0 0 0 0 0 0 0 0 0 0 0 0 0 0 0 0 0 0 0 0 0 0 0 0 0 0 0 0 0 0 0 0 0
0 0 0 0 0 0 0 0 0 0 0 0 0 0 0 0 0 0 0 0 0 0 0 0 0 0 0 0 0 0 0 0 0 0 0 0 0 0
0 0 0 0 0 0 0 0 0 0 0 0 0 0 0 0 0 0 0 0 0 0 0 0 0 0 0 0 0 0 0 0 0 0 0 0 0 0
0 0 0 0 0 0 0 0 0 0 0 0 0 0 0 0 0 0 0 0 0 0 0 0 0 0 0 0 0 0 0 0 0 0 0 0 0 0
Wind_Speed
14 16 14 13 13 13 13 13 14 17 19 18 14 14 12 12 14 15 17 22 26 28 28 29 30 31 31 32 33 33 32 30 28 28 28 28 27 26
13 16 16 13 13 13 13 13 14 15 19 16 14 13 13 11 16 17 17 23 26 27 27 28 29 29 30 31 32 32 32 31 30 30 30 29 28 27
16 17 18 18 14 13 13 13 14 14 18 20 15 14 17 16 14 15 15 16 15 24 26 27 28 28 29 30 31 32 32 32 31 31 30 30 29 28
18 18 19 15 18 15 14 15 14 15 16 22 18 14 17 16 15 16 14 13 14 19 24 26 27 27 28 29 30 31 31 31 31 31 31 30 30 29
18 18 18 18 18 15 16 15 13 13 14 17 19 14 13 12 13 15 16 15 15 16 21 24 26 27 28 29 29 30 30 30 30 30 30 30 29 29
18 18 18 18 18 18 16 16 15 14 14 15 16 14 12 12 11 12 13 12 13 12 16 17 20 25 27 28 29 28 28 29 30 30 30 29 28 28
18 18 18 21 24 21 16 14 13 13 13 14 14 14 12 10 11 10 12 12 13 11 11 11 12 12 15 22 27 27 27 28 29 30 30 29 28 28
17 17 18 20 22 26 28 27 22 16 14 14 14 15 15 13 12 11 11 11 11 9 11 12 10 11 11 11 18 24 27 28 28 28 29 28 28 28
17 16 14 14 20 16 19 24 24 27 26 17 16 16 16 14 12 14 13 13 14 9 8 10 10 11 10 12 20 22 24 25 25 26 27 27 27 27
17 17 17 17 16 16 14 14 15 16 18 15 13 14 15 13 12 13 13 13 13 10 9 9 9 10 10 10 17 22 23 24 24 25 25 25 25 26
16 16 17 17 21 25 18 15 16 14 18 23 24 22 24 25 19 10 11 10 11 10 10 9 8 9 9 9 12 20 22 24 24 25 25 24 24 23
13 14 19 20 23 25 17 15 16 14 13 13 15 17 16 17 21 13 9 10 9 8 10 9 8 7 6 8 9 9 13 19 24 25 25 25 24 15
12 11 12 21 25 26 23 16 18 18 13 12 11 10 10 9 10 10 8 9 10 8 7 10 8 8 7 5 7 9 9 9 11 15 21 24 25 20
13 12 13 23 25 26 21 20 24 21 11 9 9 9 8 8 7 8 9 9 9 9 8 10 8 9 9 8 5 6 8 8 9 9 9 16 20 24
13 20 24 26 24 18 19 22 19 11 9 9 9 8 8 7 6 6 6 7 8 8 8 10 10 8 9 8 7 6 6 7 9 9 9 9 10 11
13 17 22 22 17 16 15 12 8 8 8 8 8 8 7 6 6 6 6 6 7 7 9 11 11 11 9 10 8 7 7 6 8 9 9 9 9 10
15 11 10 9 9 8 8 8 7 7 8 7 7 7 7 6 6 5 5 6 6 6 7 7 9 9 10 8 8 8 8 8 8 9 9 9 10 11
15 9 9 9 9 9 9 8 7 7 7 7 7 7 6 6 6 5 5 6 7 7 7 7 7 7 6 7 11 10 9 8 8 9 9 10 11 11
10 8 9 9 8 8 8 8 8 7 6 6 6 6 6 5 5 5 6 6 6 6 6 6 8 9 10 10 10 15 11 9 9 9 10 10 11 10
8 8 8 8 8 8 8 7 7 7 6 6 6 6 5 5 5 6 6 7 6 6 6 7 8 9 10 9 6 8 16 12 9 10 10 10 10 12
8 8 8 8 8 8 7 7 7 7 7 6 6 6 5 5 5 6 6 8 8 7 7 7 7 8 5 4 5 6 8 15 14 10 10 10 10 11
8 8 8 8 8 8 7 7 7 7 7 6 6 5 5 5 6 6 6 6 6 6 7 5 4 5 6 8 9 9 8 9 13 19 20 17 11 10
9 9 8 8 8 7 7 8 8 7 6 6 6 5 5 5 5 5 5 5 5 6 6 5 5 6 7 8 9 9 10 10 9 10 12 19 25 27
Wind_Direction
262 261 258 256 253 253 253 252 260 273 274 272 268 260 250 248 249 249 250 251 250 250 249 246 244 243 243 243 242 241 239 236 234 233 231 232 233 235
266 265 263 262 259 255 253 252 250 256 270 272 270 269 264 254 254 254 254 255 253 252 251 249 246 244 242 241 240 239 238 237 235 234 233 232 233 233
271 268 267 266 265 262 258 255 252 251 261 271 269 268 264 258 254 253 255 255 254 251 251 251 249 246 244 242 240 239 237 236 234 234 233 233 233 233
276 275 273 272 267 265 261 258 256 253 257 268 273 271 267 263 258 256 255 255 255 255 253 252 251 249 246 243 241 239 237 236 234 233 233 233 233 234
279 277 275 273 270 267 265 262 260 259 256 262 270 270 268 263 260 255 254 254 256 257 255 252 252 251 248 244 241 239 237 235 234 233 233 233 233 234
279 276 273 271 269 269 267 265 264 262 260 260 265 267 264 260 254 253 252 248 249 251 252 251 251 251 250 247 243 240 237 235 233 232 231 231 232 234
276 273 270 269 267 267 264 261 257 257 258 258 261 262 259 252 245 243 248 251 249 243 246 245 245 244 241 244 243 241 239 236 234 233 232 231 230 231
281 279 276 274 273 272 272 270 266 261 258 257 260 259 260 254 248 241 241 243 248 232 234 240 235 239 237 236 237 238 238 236 235 233 232 232 231 229
284 283 280 278 279 274 275 276 276 274 269 264 262 261 262 256 251 244 237 236 241 236 228 240 231 235 233 235 237 238 239 238 236 234 233 232 232 230
284 283 283 282 279 277 272 268 266 266 266 268 262 263 264 262 251 246 247 245 247 240 221 238 233 233 231 230 234 235 236 238 238 237 235 233 232 231
285 283 282 281 281 282 278 272 271 267 267 265 262 262 261 258 250 242 235 236 240 230 215 224 234 235 232 228 228 230 232 234 235 235 234 233 233 231
288 285 283 283 284 285 281 277 275 273 270 268 265 266 266 266 263 250 235 234 235 231 207 206 219 217 231 226 223 221 226 232 233 232 232 231 230 229
290 288 285 287 287 287 285 279 276 278 274 268 265 261 254 247 246 243 230 230 234 233 203 193 206 205 215 219 210 212 214 217 222 228 230 229 228 225
296 292 290 292 292 291 289 282 284 284 276 270 264 261 258 252 243 235 227 225 228 230 212 196 203 203 208 215 213 203 206 211 214 216 216 223 227 228
295 295 296 297 297 294 290 289 289 282 274 269 266 265 261 255 247 235 224 223 227 223 214 204 205 206 210 216 216 206 200 205 208 212 214 215 216 220
299 297 298 296 293 289 290 290 285 276 273 272 271 268 267 256 245 239 234 223 224 219 209 206 208 210 214 217 219 214 206 202 199 208 213 218 220 221
306 300 298 299 297 297 296 293 289 285 280 273 272 269 263 253 248 236 227 219 219 214 202 201 208 214 221 219 217 218 216 215 210 207 213 222 224 224
312 304 304 305 305 304 303 299 294 288 285 280 273 269 262 254 248 233 222 221 221 217 207 195 192 197 209 226 224 227 223 221 218 215 216 224 229 227
309 305 306 307 307 305 303 299 298 296 292 283 276 270 263 256 250 236 224 222 222 220 211 197 196 203 213 222 212 212 223 223 220 220 221 226 234 234
308 306 306 306 306 306 305 303 301 298 292 285 279 273 265 258 251 242 232 227 226 220 213 205 207 212 222 232 228 207 212 222 224 226 227 232 241 246
308 306 306 306 305 305 304 302 299 296 294 289 282 275 268 260 253 247 240 233 230 226 223 220 217 217 227 231 236 227 218 221 229 233 233 236 241 241
305 305 305 305 304 302 302 301 299 297 295 288 285 279 271 264 258 252 247 240 233 232 234 228 192 197 210 223 235 238 232 226 231 238 241 240 239 239
302 302 302 303 302 302 301 299 297 295 295 294 290 283 276 268 262 257 252 248 244 238 233 223 209 210 220 228 237 241 241 238 238 239 239 239 244 250